Regional Weather Roundup
Issued by NWS Northern Indiana

Home | Current Version | Previous Version | Text Only | Print | Product List | Glossary Off
Versions: 1 2 3 4 5 6 7 8 9 10 11 12 13 14 15 16 17 18 19 20 21 22 23 24 25 26 27 28 29 30 31 32 33 34 35 36 37 38 39 40 41 42 43 44 45 46 47 48 49 50

000
ASUS43 KIWX 301900
RWRIWX

KIWX WEATHER ROUNDUP
NATIONAL WEATHER SERVICE NORTHERN INDIANA
300 PM EDT SUN AUG 30 2015

NOTE: "FAIR" INDICATES FEW OR NO CLOUDS BELOW 12,000 FEET WITH NO
SIGNIFICANT WEATHER AND/OR OBSTRUCTIONS TO VISIBILITY.

* THESE STATIONS ARE NOT UNDER NWS QUALITY CONTROL. THEY ALSO MAY NOT
  REPORT WEATHER SUCH AS PRECIPITATION OR FOG.

INZ001>027-302000-
NORTHERN INDIANA

CITY           SKY/WX    TMP DP  RH WIND       PRES   REMARKS
GARY*          CLOUDY    73  63  68 CALM      30.08S
KNOX*          CLOUDY    72  68  88 CALM      30.06F
SOUTH BEND     CLOUDY    75  68  78 S5        30.07F
ELKHART*       CLOUDY    73  70  88 CALM      30.07F FOG
GOSHEN         PTSUNNY   77  69  76 NW5       30.06S
MONTICELLO*    CLOUDY    82  70  67 SW5       30.05S
WARSAW*        PTSUNNY   81  68  65 W6        30.06S
ANGOLA*        PTSUNNY   81  72  74 W5        30.06S
FORT WAYNE     MOSUNNY   83  66  56 SW12      30.05F

$$
INZ028>050-302000-
CENTRAL INDIANA

CITY           SKY/WX    TMP DP  RH WIND       PRES   REMARKS
LAFAYETTE      PTSUNNY   83  65  54 VRB6      30.04F
KOKOMO*        PTSUNNY   84  66  54 SW12      30.05F
MUNCIE*        SUNNY     84  65  52 SW10      30.06F
INDIANAPOLIS   MOSUNNY   85  62  46 S14       30.06F

$$
MIZ043>046-050>051-056>058-064>065-071>073-077>080-302000-
SOUTHWEST LOWER MICHIGAN

CITY           SKY/WX    TMP DP  RH WIND       PRES   REMARKS
BATTLE CREEK   CLOUDY    75  67  76 SW8       30.07S
BENTON HARBOR  PTSUNNY   73  65  75 W10       30.07S
COLDWATER*     PTSUNNY   78  69  73 W8        30.06F
HILLSDALE*     CLOUDY    80  70  71 W6        30.07S
HOLLAND        CLOUDY    76  66  71 W9        30.07R
GRAND RAPIDS   CLOUDY    75  68  78 S5        30.05F
KALAMAZOO      CLOUDY    75  66  73 SW6       30.07S
STURGIS*       PTSUNNY   75  70  83 CALM      30.06F HAZE
THREE RIVERS*  CLOUDY    74  69  83 CALM      30.07S HAZE

$$
OHZ001>008-015>018-024>025-302000-
NORTHWEST OHIO

CITY           SKY/WX    TMP DP  RH WIND       PRES   REMARKS
DEFIANCE       PTSUNNY   83  67  58 VRB7      30.05F
FINDLAY        SUNNY     84  67  56 SW8       30.05F
TOLEDO EXPRESS PTSUNNY   81  67  62 SW8       30.04F
TOLEDO METCALF MOSUNNY   84  67  56 W10       30.05F
LIMA           MOSUNNY   83  68  60 S8        30.06F

$$
AND FOR LAKE MICHIGAN COASTAL AND OPEN LAKE BUOY OBSERVATIONS

STATION/POSITION TEMP    WIND        PRES    VSBY  WAVE
                 AIR SEA DIR/SP/G                  HT/PER
                 (F)     (DEG/KT/KT) (MB)    (MI)  (FT/S)
MICHIGAN CITY     70     250/  6/  6   N/A
BURNS HARBOR      68     320/  4/  6 1019.0F
SAINT JOSEPH      72     200/  8/  9 1019.3S
SOUTH LAKE BUOY   66 69  320/  8/  8 1018.0R
4 MI NW BRIDGMAN  69 71  300/  8/  8   N/A           1/ 3
MICHIGAN CITY     69 71  300/  6/  8   N/A           1/ 3

$$
&&



USA.gov is the U.S. government's official web portal to all federal, state and local government web resources and services.